Location: Aciu?a
(46.2833°N, 22.4500°E)
Time: 04:28:48
(UTC+00:00)

Cosmos 2333 Rocket - Pass Details

Date: 25 October 2021
Orbit: 837 x 865 km, 70.8° (Epoch: 30 November)

Event Time Altitude Azimuth Distance (km) Brightness Sun altitude
Rises 18:08:54 0° 212° (SSW) 3,386 5.6 -28.6°
Reaches altitude 10° 18:11:21 10° 214° (SW) 2,458 4.8 -29.0°
Maximum altitude 18:16:59 71° 298° (WNW) 897 2.3 -30.0°
Enters shadow 18:17:11 70° 316° (NW) 902 2.3 -30.0°
